Location: Rain
(48.6903°N, 10.9161°E)
Time: 05:41:56
(UTC+00:00)

Daily predictions for brighter satellites

Satellite Brightness Start Highest point End
(mag) Time Altitude Azimuth Time Altitude Azimuth Time Altitude Azimuth
CZ-2D R/B 3.8 00:00:36 10° NE 00:04:27 25° E 00:04:27 25° E
Cosmos 2333 Rocket 2.9 00:02:36 10° NNW 00:07:04 51° N 00:07:04 51° N
Cosmos 2237 Rocket 3.9 00:09:15 10° NNW 00:14:13 30° NE 00:17:06 20° E
SL-16 R/B 2.7 00:31:32 67° E 00:31:42 67° ENE 00:37:54 10° NNW
Cosmos 2297 Rocket 4.2 00:36:37 17° ESE 00:36:59 18° E 00:40:36 10° ENE
Cosmos 839 Rocket 4.5 00:37:10 53° WNW 00:37:35 53° NW 00:44:31 10° NNE
Meteor 1-11 Rocket 4.1 00:36:29 10° N 00:42:22 65° ENE 00:42:22 65° ENE
Cosmos 1072 Rocket 4.5 00:40:08 10° N 00:45:57 79° NNW 00:45:57 79° NNW
Meteor 2-6 Rocket 4.5 00:49:34 62° NNE 00:49:34 62° NNE 00:54:01 10° NNE
USA 234 4.2 00:43:52 10° E 00:50:02 46° N 00:56:11 10° WNW
Cosmos 2219 Rocket 3.1 00:45:26 10° NNW 00:49:01 40° NW 00:49:01 40° NW
IRS-1D 4.4 00:58:03 10° NNE 01:02:47 39° E 01:02:48 39° E
Cosmos 2227 Rocket 3.7 01:02:32 24° ESE 01:03:19 25° ESE 01:07:49 10° NE
ADEOS II 3.3 01:02:42 10° NNE 01:07:26 33° E 01:08:11 31° ESE
COSMOS 2428 3.7 01:06:39 10° NW 01:10:03 35° NW 01:10:03 35° NW
SJ 16-02 2.4 01:14:58 41° N 01:14:58 41° N 01:17:59 10° NNE
Cosmos 1464 Rocket 4.1 01:07:35 10° NNW 01:13:07 60° WNW 01:13:07 60° WNW
Cosmos 1980 3.7 01:11:43 10° NNW 01:17:26 78° ENE 01:18:04 68° ESE
Resurs 1-4 Rocket 2.1 01:14:00 10° NNE 01:18:58 77° NNW 01:18:58 77° NNW
NOSS 0 Rocket 3.8 01:19:01 10° NNW 01:24:55 71° W 01:24:55 71° W
ARIANE 5 R/B 3.8 01:24:39 10° NNE 01:29:27 35° E 01:31:01 29° SE
Cosmos 1816 Rocket 4.4 01:31:04 63° S 01:32:12 87° E 01:38:35 10° N
SL-16 R/B 3.3 01:29:48 10° NNW 01:35:12 43° NE 01:40:35 10° SE
H-2A R/B 3.1 01:34:44 36° ESE 01:35:39 42° ENE 01:39:34 10° N
STARLINK-72 4.5 01:37:03 47° NE 01:37:03 47° NE 01:40:01 10° ENE
STARLINK-1025 4.4 01:36:59 50° NE 01:36:59 50° NE 01:40:09 10° ENE
STARLINK-50 4.4 01:38:37 48° NE 01:38:37 48° NE 01:41:38 10° ENE
STARLINK-59 4.3 01:40:18 50° NE 01:40:18 50° NE 01:43:24 10° ENE
Cosmos 1908 Rocket 3.8 01:35:32 10° N 01:39:31 67° NE 01:39:31 67° NE
STARLINK-56 4.3 01:41:48 51° NE 01:41:48 51° NE 01:44:57 10° ENE
STARLINK-1017 4.2 01:41:46 56° NE 01:41:46 56° NE 01:45:07 10° ENE
Lacrosse 5 rocket 2.6 01:41:23 34° N 01:41:23 34° N 01:44:40 10° NE
Timation 2 Rocket 4.1 01:39:47 57° WSW 01:41:13 74° WNW 01:48:10 10° NNE
STARLINK-73 4.2 01:43:24 53° NE 01:43:24 53° NE 01:46:37 10° ENE
NPP 3.7 01:38:30 10° N 01:43:49 61° WNW 01:44:03 60° W
STARLINK-38 4.2 01:44:59 55° NE 01:44:59 55° NE 01:48:16 10° ENE
CZ-2D R/B 2.4 01:40:10 10° N 01:45:31 54° WNW 01:45:47 53° W
STARLINK-65 4.1 01:46:35 56° NE 01:46:35 56° NE 01:49:56 10° ENE
Cosmos 1634 Rocket 4.0 01:41:20 10° N 01:47:32 81° E 01:50:17 36° SSE
STARLINK-53 4.1 01:48:14 57° NNE 01:48:14 57° NNE 01:51:40 10° ENE
STARLINK-1014 4.0 01:49:10 60° NE 01:49:10 60° NE 01:52:40 10° ENE
ERS-2 3.7 01:53:19 27° NNW 01:53:19 27° NNW 01:55:07 10° NNW
Cosmos 2333 Rocket 4.1 01:47:37 10° NW 01:49:02 16° WNW 01:49:02 16° WNW
STARLINK-1044 4.5 01:53:59 42° ESE 01:53:59 42° ESE 01:57:17 10° ENE
Cosmos 372 Rocket 4.0 01:54:53 59° S 01:55:47 75° ESE 02:01:01 10° NNE
STARLINK-1048 3.8 01:56:06 66° N 01:56:06 66° N 02:00:03 10° ENE
CZ-4B R/B 3.9 01:51:39 10° N 01:55:59 42° WNW 01:55:59 42° WNW
USA 267 3.9 01:50:26 10° ENE 01:56:36 42° SE 01:58:52 32° S
Cosmos 1937 Rocket 3.7 01:56:46 51° WNW 01:57:07 52° WNW 02:02:12 10° NNE
ATLAS 3B R/B 4.5 01:53:20 11° SSE 01:57:52 21° ESE 02:02:40 10° ENE
STARLINK-24 3.9 01:58:12 61° N 01:58:12 61° N 02:02:02 10° ENE
STARLINK-1047 4.2 01:58:44 47° ESE 01:58:44 47° ESE 02:02:15 10° ENE
Cosmos 2237 Rocket 2.1 01:53:04 10° NW 01:58:39 59° WSW 01:58:51 58° WSW
SL-08 R/B 3.3 01:58:01 66° S 01:58:42 80° WSW 02:03:42 10° NNW
STARLINK-1037 4.2 01:59:23 48° ESE 01:59:23 48° ESE 02:02:56 10° ENE
STARLINK-1049 3.8 02:00:53 65° NNW 02:00:54 65° NNW 02:05:02 10° ENE
Tsikada Rocket 4.1 02:00:24 49° SW 02:01:59 65° WNW 02:08:23 10° N
CBERS-1 4.0 01:57:02 10° N 02:02:08 65° WNW 02:02:45 59° WSW
STARLINK-66 4.5 02:02:45 35° NNE 02:02:45 35° NNE 02:05:27 10° ENE
ATLAS 5 CENTAUR R/B 3.5 01:57:45 10° NNW 02:02:55 41° NE 02:08:53 10° ESE
STARLINK-58 4.4 02:04:48 35° NNE 02:04:48 35° NNE 02:07:21 10° ENE
Cosmos 1818 4.3 01:59:43 10° NNW 02:05:04 53° NE 02:10:24 10° ESE
Cosmos 1544 4.3 02:01:51 10° N 02:05:20 40° ENE 02:06:48 27° SE
STARLINK-1051 3.8 02:05:41 61° NW 02:05:55 62° NNW 02:10:02 10° ENE
Okean 1 3.3 02:06:03 70° ESE 02:06:13 71° E 02:10:11 10° NNE
STARLINK-1010 4.0 02:07:29 53° NW 02:08:00 57° NNW 02:12:11 10° ENE
Meteor 1-27 Rocket 4.2 02:07:19 41° W 02:08:02 43° WNW 02:13:33 10° N
STARLINK-1059 3.8 02:08:19 57° SE 02:08:19 57° SE 02:12:16 10° ENE
Cosmos 1898 Rocket 4.5 02:11:46 30° WNW 02:12:27 31° NW 02:17:06 10° N
IRS-P3 4.1 02:07:35 10° NNE 02:12:56 74° WNW 02:14:22 49° SW
STARLINK-75 4.3 02:12:52 36° N 02:12:58 36° N 02:16:00 10° ENE
STARLINK-1057 3.7 02:13:06 62° SSE 02:13:09 62° SSE 02:17:15 10° ENE
SL-16 R/B 3.7 02:16:37 24° W 02:16:37 24° W 02:20:49 10° NW
STARLINK-1028 4.0 02:15:13 50° NW 02:15:52 58° NNW 02:19:59 10° ENE
Okean 2 Rocket 4.2 02:12:16 10° N 02:16:36 44° ENE 02:20:55 10° SSE
STARLINK-61 4.3 02:15:54 38° NW 02:16:47 45° N 02:20:34 10° ENE
Landsat 5 3.4 02:15:52 41° SE 02:17:05 72° ENE 02:20:57 10° N
Sich 1 Rocket 3.7 02:13:36 10° N 02:18:00 71° ENE 02:20:31 25° SSE
STARLINK-1034 3.6 02:17:53 64° S 02:18:07 66° SSE 02:22:14 10° ENE
Cosmos 1743 3.2 02:15:03 10° NNW 02:18:11 48° NW 02:18:11 48° NW
Cosmos 1975 2.8 02:15:23 10° N 02:19:26 81° E 02:20:39 44° SSE
Cosmos 2297 Rocket 2.1 02:18:25 44° SW 02:20:18 83° WNW 02:26:01 10° NNE
STARLINK-1021 4.0 02:20:02 45° WNW 02:20:54 56° NNW 02:24:59 10° ENE
USA 238 DEB 3.6 02:18:57 38° SW 02:21:50 84° SE 02:28:48 10° NE
USA 238 3.6 02:19:02 37° SSW 02:21:56 84° SE 02:28:56 10° NE
STARLINK-1068 3.5 02:22:39 64° SSW 02:23:04 71° SSE 02:27:12 10° ENE
BREEZE-M DEB (TANK) 3.2 02:22:14 50° W 02:23:13 85° N 02:29:27 10° E
Meteor 2-9 Rocket 4.3 02:18:21 10° N 02:24:16 82° ENE 02:30:07 10° SSE
STARLINK-1029 4.1 02:24:13 36° NNW 02:24:28 36° N 02:27:25 10° ENE
STARLINK-1019 4.1 02:24:48 41° WNW 02:25:53 54° NNW 02:29:57 10° ENE
STARLINK-34 4.2 02:25:25 33° NNW 02:25:55 36° N 02:28:55 10° ENE
STARLINK-62 4.2 02:26:20 33° NNW 02:26:52 36° N 02:29:52 10° ENE
STARLINK-81 4.1 02:26:09 40° WNW 02:27:11 52° NNW 02:31:08 10° ENE
Helios 1B 4.4 02:26:00 42° S 02:27:22 73° WSW 02:31:44 10° NNW
STARLINK-1023 4.2 02:27:18 37° WNW 02:28:37 52° NNW 02:32:44 10° ENE
Cosmos 1048 Rocket 4.0 02:23:24 10° NNW 02:28:41 63° WSW 02:32:52 16° S
STARLINK-54 4.2 02:27:54 37° WNW 02:29:04 51° N 02:33:00 10° ENE
STARLINK-22 4.3 02:28:25 31° NNW 02:29:13 37° N 02:32:16 10° ENE
Cosmos 2219 3.4 02:27:51 38° WSW 02:29:48 57° WNW 02:35:31 10° NNE
CZ-2C R/B 3.4 02:26:25 10° NNE 02:30:25 55° E 02:32:21 27° SSE
STARLINK-77 4.1 02:29:19 37° WNW 02:30:29 51° NNW 02:34:27 10° ENE
STARLINK-1012 4.2 02:29:35 37° WNW 02:30:53 53° NNW 02:34:57 10° ENE
Meteor 2-4 Rocket 4.5 02:25:32 12° S 02:30:58 54° E 02:36:40 10° NNE
STARLINK-25 4.1 02:30:54 36° WNW 02:32:09 51° NNW 02:36:06 10° ENE
USA 234 3.4 02:26:06 10° ESE 02:32:37 76° NNE 02:39:10 10° NW
STARLINK-1060 3.5 02:32:12 56° SW 02:33:00 80° SSE 02:37:10 10° ENE
STARLINK-71 4.2 02:32:40 33° WNW 02:34:04 49° N 02:37:59 10° ENE
COBE Rocket 3.9 02:29:25 10° SSE 02:34:10 78° ENE 02:38:51 10° N
Cosmos 2279 Rocket 3.9 02:28:45 10° NNW 02:34:59 75° W 02:40:52 12° S
STARLINK-79 4.2 02:34:05 34° WNW 02:35:29 50° N 02:39:25 10° ENE
Meteor 1-28 Rocket 3.2 02:36:21 55° WSW 02:36:27 55° W 02:40:10 10° NNW
STARLINK-78 4.2 02:35:41 32° WNW 02:37:09 49° N 02:41:05 10° ENE
Meteor 1-18 Rocket 4.2 02:34:45 30° SSW 02:37:47 77° WNW 02:43:30 10° N
STARLINK-1030 3.5 02:37:00 51° SW 02:38:00 84° SSE 02:42:10 10° ENE
STARLINK-57 4.2 02:37:22 31° WNW 02:38:55 49° N 02:42:52 10° ENE
STARLINK-48 4.3 02:38:02 21° WNW 02:40:21 47° N 02:44:08 10° E
Cosmos 1125 Rocket 3.5 02:37:44 30° SSW 02:40:28 87° ESE 02:45:49 10° NNE
STARLINK-49 4.2 02:38:53 30° WNW 02:40:29 49° N 02:44:25 10° ENE
STARLINK-1026 4.3 02:39:08 30° WNW 02:40:52 50° N 02:44:55 10° ENE
GENESIS II 4.2 02:39:54 48° WSW 02:40:56 76° NW 02:45:04 10° NE
IRS-1D 4.4 02:37:31 10° N 02:41:58 32° WNW 02:43:17 28° W
STARLINK-27 4.2 02:40:27 29° WNW 02:42:08 48° N 02:46:04 10° ENE
STARLINK-1020 3.5 02:41:48 46° WSW 02:43:00 89° SE 02:47:10 10° ENE
STARLINK-74 4.3 02:42:03 28° WNW 02:43:48 48° N 02:47:44 10° ENE
STARLINK-39 4.3 02:43:37 27° WNW 02:45:27 48° N 02:49:23 10° ENE
NOSS 3-2 (A) 3.4 02:42:50 31° SW 02:45:50 76° NW 02:52:33 10° NE
STARLINK-1013 4.3 02:43:55 27° WNW 02:45:52 49° N 02:49:54 10° ENE
Cosmos 2227 Rocket 2.3 02:44:22 32° SW 02:46:57 61° WNW 02:52:35 10° NNE
STARLINK-31 4.3 02:45:15 26° WNW 02:47:09 47° N 02:51:04 10° ENE
ADEOS II 2.7 02:42:19 10° N 02:47:13 40° WNW 02:49:08 29° WSW
STARLINK-1052 3.5 02:46:34 41° WSW 02:47:57 87° NNW 02:52:08 10° ENE
STARLINK-1007 4.3 02:46:17 25° WNW 02:48:25 49° N 02:52:32 10° ENE
STARLINK-69 4.3 02:46:59 25° WNW 02:49:01 46° N 02:52:55 10° ENE
CENTAUR R/B 2.7 02:46:11 24° SSW 02:50:01 71° SE 02:57:04 10° NE
CZ-2D R/B 3.5 02:45:51 10° N 02:50:02 63° WNW 02:51:42 34° SW
STARLINK-41 4.1 02:48:32 22° NW 02:50:08 39° N 02:53:10 10° E
STARLINK-21 4.3 02:48:25 24° WNW 02:50:29 47° N 02:54:24 10° ENE
STARLINK-1009 4.3 02:48:43 24° WNW 02:50:53 48° N 02:54:56 10° ENE
Cosmos 1782 Rocket 4.1 02:47:42 10° NNW 02:51:42 36° W 02:52:27 34° WSW
STARLINK-45 4.4 02:50:10 23° WNW 02:52:22 46° N 02:56:16 10° ENE
Cosmos 2150 Rocket 4.4 02:50:34 29° WSW 02:52:59 49° WNW 02:58:19 10° NNE
SJ 16-02 3.7 02:52:14 10° WNW 02:53:08 11° NW 02:54:02 10° NNW
CZ-4C R/B 4.1 02:54:40 25° WNW 02:54:40 25° WNW 02:56:31 10° NNW
STARLINK-70 4.4 02:51:42 22° WNW 02:53:56 46° N 02:57:51 10° ENE
STARLINK-76 4.4 02:53:12 22° WNW 02:55:29 46° N 02:59:24 10° ENE
STARLINK-1015 4.4 02:53:27 22° WNW 02:55:51 47° N 02:59:53 10° ENE
Okean 1-7 3.7 02:55:06 31° WSW 02:56:16 37° WNW 03:00:23 10° N
STARLINK-42 4.0 02:54:28 19° NW 02:56:26 44° NNE 02:59:32 10° E
STARLINK-23 4.4 02:54:48 21° WNW 02:57:10 46° N 03:01:04 10° ENE
STARLINK-80 3.7 02:54:27 16° WNW 02:57:22 65° NNE 03:01:10 10° ESE
STARLINK-1027 3.7 02:55:30 32° WSW 02:57:23 78° NNW 03:01:41 10° ENE
STARLINK-1033 3.6 02:56:08 33° WSW 02:57:55 79° NNW 03:02:05 10° ENE
Resurs 1-4 Rocket 3.9 02:55:22 10° NNW 02:58:21 15° NW 03:00:03 13° WNW
STARLINK-32 4.4 02:56:22 21° WNW 02:58:47 45° N 03:02:41 10° ENE
SAR-Lupe-4 3.7 02:57:22 30° SSW 02:58:49 50° WSW 03:02:20 10° NNW
STARLINK-40 4.4 02:57:57 20° WNW 03:00:27 45° N 03:04:21 10° ENE
STARLINK-64 4.3 02:58:20 17° WNW 03:00:47 41° N 03:04:11 10° ENE
STARLINK-1016 4.4 02:58:16 20° WNW 03:00:53 46° N 03:04:55 10° ENE
IDEFIX/ARIANE 42P 2.5 02:55:49 10° NNE 03:01:03 88° WNW 03:05:38 14° SSW
STARLINK-44 4.4 02:59:33 19° WNW 03:02:07 45° N 03:06:01 10° ENE
Okean 1 Rocket 4.5 02:58:48 10° N 03:02:57 40° ENE 03:07:06 10° SE
STARLINK-37 4.4 03:01:15 18° WNW 03:03:56 45° N 03:07:49 10° ENE
STARLINK-1038 4.4 03:02:29 23° SSW 03:04:38 42° SE 03:08:33 10° ENE
STARLINK-1031 3.8 03:02:54 27° W 03:05:08 71° NNW 03:09:24 10° ENE
STARLINK-36 4.4 03:02:43 18° WNW 03:05:27 45° N 03:09:21 10° ENE
STARLINK-1008 4.4 03:03:03 18° WNW 03:05:53 46° N 03:09:55 10° ENE
BREEZE-M DEB (TANK) 2.6 03:05:30 26° SSW 03:06:44 37° SSE 03:08:50 10° E
STARLINK-68 4.4 03:04:28 17° WNW 03:07:19 44° N 03:11:13 10° ENE
STARLINK-1024 3.7 03:05:41 27° W 03:07:54 72° NNW 03:12:03 10° ENE
ARIANE 5 R/B 3.2 03:03:46 10° N 03:08:33 38° WNW 03:11:22 22° WSW
STARLINK-63 4.4 03:06:00 16° WNW 03:08:53 44° N 03:12:47 10° ENE
STARLINK-1046 4.3 03:07:16 22° SSW 03:09:35 45° SE 03:13:33 10° ENE
CZ-4B R/B 1.3 03:06:28 10° S 03:09:57 74° WSW 03:13:27 10° NNW
Spot 4 Rocket 4.4 03:05:23 10° N 03:10:19 47° WNW 03:13:36 20° SW
CZ-2C R/B 3.5 03:06:01 10° NNE 03:10:22 41° E 03:14:42 10° S
STARLINK-35 4.4 03:07:30 16° WNW 03:10:27 44° N 03:14:20 10° ENE
BREEZE-M DEB (TANK) 3.8 03:06:24 10° WNW 03:10:52 26° SW 03:14:10 10° SSE
H-2A R/B 3.3 03:11:48 21° W 03:11:48 21° W 03:15:00 10° NW
STARLINK-51 4.4 03:09:05 15° WNW 03:12:06 44° N 03:15:59 10° ENE
STARLINK-1035 3.8 03:10:27 24° W 03:12:52 69° NNW 03:17:01 10° ENE
STARLINK-30 4.4 03:10:39 15° WNW 03:13:45 44° N 03:17:38 10° ENE
STARLINK-1039 4.2 03:12:03 21° SSW 03:14:33 48° SE 03:18:34 10° ENE
STARLINK-72 4.5 03:12:17 14° WNW 03:15:27 44° N 03:19:20 10° ENE
STARLINK-1025 4.5 03:12:37 14° WNW 03:15:54 45° N 03:19:55 10° ENE
STARLINK-43 3.4 03:13:52 17° WNW 03:16:32 53° SSW 03:20:08 10° SE
STARLINK-50 4.5 03:13:50 14° WNW 03:17:05 44° N 03:20:58 10° ENE
NOSS 3-2 (C) 3.5 03:13:21 20° SW 03:17:37 74° NW 03:24:22 10° NE
Meteor 1-4 Rocket 2.7 03:13:59 10° S 03:17:46 79° E 03:21:32 10° NNE
STARLINK-1032 3.8 03:15:15 21° W 03:17:52 66° NNW 03:22:00 10° ENE
Cosmos 389 Rocket 2.9 03:17:04 24° SW 03:18:51 44° WNW 03:22:15 10° N
STARLINK-59 4.5 03:15:31 13° WNW 03:18:52 44° N 03:22:45 10° ENE
SL-16 R/B 2.7 03:14:07 10° NW 03:19:16 37° WSW 03:24:23 10° S
STARLINK-1045 4.1 03:16:51 20° SW 03:19:31 52° SE 03:23:33 10° ENE
STARLINK-56 4.5 03:17:01 13° WNW 03:20:24 44° N 03:24:17 10° ENE
STARLINK-1017 4.5 03:17:24 13° WNW 03:20:54 45° N 03:24:54 10° ENE
Lacrosse 5 rocket 3.2 03:17:48 10° NW 03:21:02 24° N 03:24:25 10° ENE
STARLINK-26 3.2 03:18:23 11° WNW 03:21:44 77° NNE 03:25:12 10° ESE
STARLINK-73 4.5 03:18:37 12° WNW 03:22:05 44° N 03:25:57 10° ENE
STARLINK 1040 3.3 03:20:14 13° WNW 03:22:32 50° NNE 03:25:12 10° E
STARLINK-1011 3.9 03:20:02 19° W 03:22:51 63° NNW 03:26:59 10° ENE
Meteor 1-13 Rocket 4.2 03:17:48 10° S 03:23:33 88° WNW 03:29:12 10° NNE
STARLINK-55 3.4 03:20:32 11° WNW 03:23:36 60° NNE 03:26:47 10° E
STARLINK-38 4.5 03:20:12 12° WNW 03:23:45 44° N 03:27:38 10° ENE
Cosmos 2082 4.0 03:20:11 18° SW 03:24:22 53° WNW 03:30:01 10° NNE
CZ-2D R/B 4.3 03:23:01 10° NNW 03:24:24 11° NW 03:25:48 10° WNW
STARLINK-1050 4.0 03:21:38 18° SW 03:24:29 56° SSE 03:28:34 10° ENE
ADEOS 4.0 03:19:27 10° NNE 03:24:40 65° ESE 03:29:51 10° S
deb Chang Zheng 4 3.6 03:20:39 10° N 03:24:55 59° WNW 03:28:52 12° SSW
STARLINK-65 4.5 03:21:49 12° WNW 03:25:24 44° N 03:29:18 10° ENE
Cosmos 1674 Rocket 3.7 03:21:31 10° S 03:25:54 80° E 03:30:18 10° NNE
STARLINK-53 4.5 03:23:27 11° WNW 03:27:10 44° N 03:31:03 10° ENE
STARLINK-28 3.3 03:24:22 10° WNW 03:27:35 65° NNE 03:30:47 10° ESE
STARLINK-1036 3.9 03:24:50 17° W 03:27:52 61° NNW 03:31:59 10° ENE
STARLINK-1014 4.5 03:24:24 11° WNW 03:28:07 44° N 03:32:03 10° ENE
STARLINK-1055 3.9 03:26:25 17° SW 03:29:27 60° SSE 03:33:33 10° ENE
PAYLOAD A 4.3 03:24:56 10° NNE 03:30:23 78° ESE 03:35:39 10° S
STARLINK-1044 4.0 03:29:37 16° W 03:32:52 58° NNW 03:36:59 10° ENE
Okean 3 4.0 03:30:21 15° SW 03:33:28 38° WNW 03:37:23 10° N
STARLINK-33 3.3 03:30:34 10° WNW 03:33:47 65° NNE 03:36:59 10° ESE
STARLINK-1022 3.8 03:31:13 16° SW 03:34:26 65° SSE 03:38:33 10° ENE
STARLINK-24 4.5 03:33:41 10° WNW 03:37:33 44° N 03:41:25 10° ENE
STARLINK-1047 4.0 03:34:23 14° W 03:37:50 56° NNW 03:41:56 10° ENE
STARLINK-1037 4.0 03:35:01 14° W 03:38:30 56° NNW 03:42:35 10° ENE
STARLINK-66 3.2 03:35:41 10° WNW 03:38:55 70° NNE 03:42:07 10° ESE
COSMOS 2441 4.4 03:34:34 10° N 03:39:20 66° WNW 03:44:05 10° SSW
STARLINK-1042 3.8 03:35:59 15° SW 03:39:24 69° SSE 03:43:31 10° ENE
USA 267 3.4 03:33:23 10° NE 03:39:55 76° NNW 03:46:14 11° WSW
STARLINK-58 3.9 03:37:43 10° WNW 03:40:48 46° NNE 03:43:54 10° E
Cosmos 1603 3.6 03:36:45 10° NNW 03:42:22 78° WSW 03:48:00 10° SSE
SeaSat 1 2.4 03:37:49 10° SSE 03:42:46 84° WSW 03:47:44 10° NNW
Meteor 1-15 Rocket 4.2 03:38:20 10° NNW 03:43:57 82° W 03:49:36 10° S
STARLINK-1056 3.7 03:40:46 13° SW 03:44:23 73° SSE 03:48:31 10° ENE
Cosmos 1300 Rocket 4.3 03:40:43 10° NNW 03:44:30 30° W 03:48:16 10° SSW
Meteor 1-23 Rocket 4.4 03:41:15 10° S 03:46:58 82° E 03:52:48 10° NNE
ATLAS 3B R/B 2.7 03:41:03 10° SW 03:47:43 89° WNW 03:54:26 10° NE
STARLINK-1059 4.1 03:43:57 11° W 03:47:50 53° NNW 03:51:55 10° ENE
ATLAS 5 CENTAUR R/B 2.5 03:42:14 10° NW 03:47:51 56° SW 03:54:18 10° SSE
Cosmos 1818 4.2 03:43:39 10° NW 03:48:27 32° WSW 03:53:12 10° S
STARLINK-1054 3.7 03:45:32 12° WSW 03:49:19 78° SSE 03:53:28 10° ENE
STARLINK-75 3.1 03:46:12 10° WNW 03:49:26 74° NNE 03:52:39 10° ESE
STARLINK-1057 4.2 03:48:47 10° W 03:52:50 52° NNW 03:56:54 10° ENE
STARLINK-1062 3.7 03:50:19 11° WSW 03:54:18 83° SSE 03:58:27 10° ENE
Okean 2 Rocket 4.4 03:50:57 10° NW 03:54:24 22° W 03:57:51 10° SW
Cosmos 2263 Rocket 2.5 03:49:59 10° SSW 03:55:37 72° ESE 04:01:20 10° NNE
STARLINK-61 4.1 03:52:07 10° WNW 03:55:59 54° NNE 03:59:49 10° E
Cosmos 1689 Rocket 2.8 03:53:14 10° SSW 03:56:00 33° W 03:58:46 10° NNW
Cosmos 2151 Rocket 4.5 03:52:14 10° NNW 03:56:00 28° W 03:59:45 10° SSW
PSLV R/B 4.0 03:52:30 10° N 03:56:41 45° WNW 04:00:51 10° SW
STARLINK-1034 4.2 03:53:47 10° W 03:57:51 50° N 04:01:54 10° ENE
BREEZE-M DEB (TANK) 2.1 03:55:33 10° WNW 03:58:53 58° SSW 04:01:06 10° ESE
STARLINK-1053 3.6 03:55:08 10° WSW 03:59:18 87° SSE 04:03:27 10° ENE
Cosmos 1437 Rocket 3.3 03:55:51 10° S 03:59:55 69° E 04:03:58 10° NNE
STARLINK-1029 3.8 03:57:45 10° WNW 04:00:49 47° NNE 04:03:52 10° E
STARLINK-1021 4.5 03:56:55 10° WNW 04:00:56 47° N 04:04:58 10° E
STARLINK-34 3.5 03:59:12 10° WNW 04:02:22 57° NNE 04:05:31 10° E
STARLINK-1068 4.3 03:58:47 10° W 04:02:50 49° N 04:06:52 10° ENE
STARLINK-62 3.5 04:00:08 10° WNW 04:03:18 58° NNE 04:06:28 10° E
Cosmos 1867 3.7 03:58:39 10° SW 04:04:06 88° SE 04:09:37 10° NE
STARLINK-1061 3.6 04:00:05 10° WSW 04:04:15 89° NNW 04:08:24 10° ENE
Cosmos 1378 Rocket 3.7 04:00:14 10° SSW 04:04:30 55° WNW 04:08:51 10° N
Cosmos 2297 Rocket 3.8 04:01:07 10° W 04:05:15 20° NW 04:09:23 10° N
Cosmos 1455 Rocket 4.1 04:01:05 10° N 04:05:28 53° ENE 04:09:50 10° SSE
STARLINK-22 3.1 04:02:25 10° WNW 04:05:39 79° NNE 04:08:54 10° ESE
STARLINK-1019 4.5 04:01:54 10° WNW 04:05:55 48° N 04:09:57 10° E
STARLINK-81 4.4 04:02:51 10° WNW 04:06:46 47° N 04:10:41 10° E
Cosmos 1092 Rocket 4.2 04:02:20 10° SSW 04:08:33 56° WNW 04:14:46 10° N
STARLINK-54 4.4 04:04:44 10° WNW 04:08:40 48° N 04:12:35 10° E
STARLINK-1023 4.5 04:04:47 10° WNW 04:08:53 49° N 04:12:59 10° E
STARLINK-1067 3.7 04:05:06 10° WSW 04:09:15 84° NNW 04:13:25 10° ENE
STARLINK-77 4.4 04:06:10 10° WNW 04:10:05 47° N 04:14:00 10° E
Aureole 3 Rocket 2.9 04:05:23 10° N 04:10:08 89° E 04:13:39 10° S
STARLINK-1012 4.5 04:06:54 10° WNW 04:10:56 48° N 04:14:58 10° E
